Regional Weather Roundup
Issued by NWS

Home | Current Version | Previous Version | Text Only | Print | Product List | Glossary On
Versions: 1 2 3 4 5 6 7 8 9 10 11 12 13 14 15 16 17 18 19 20 21 22 23 24 25 26 27 28 29 30 31 32 33 34 35 36 37 38 39 40 41 42 43 44 45 46 47 48 49 50
000
ASUS43 KTOP 210908
RWRKS

WEATHER ROUNDUP FOR KANSAS
NATIONAL WEATHER SERVICE GOODLAND KS
400 AM CDT TUE OCT 21 2014

NOTE:  "FAIR" INDICATES FEW OR NO CLOUDS BELOW 12,000 FEET WITH NO
SIGNIFICANT WEATHER AND/OR OBSTRUCTIONS TO VISIBILITY.

KSZ001>006-013>018-027>032-041>047-211000-
NORTHWEST KANSAS

CITY           SKY/WX    TMP DP  RH WIND       PRES   REMARKS
GOODLAND       CLEAR     48  40  73 S10       30.09F
HAYS           CLEAR     48  37  66 CALM      30.07F
HILL CITY      CLEAR     50  42  74 W5        30.08S
RUSSELL        CLEAR     50  43  77 S9        30.06F
$$

KSZ061>065-074>080-084>089-211000-
SOUTHWEST KANSAS

CITY           SKY/WX    TMP DP  RH WIND       PRES   REMARKS
DODGE CITY     CLEAR     53  46  77 SE8       30.08F
ELKHART          N/A     54  49  83 S8          N/A
GARDEN CITY    CLEAR     50  43  77 SE8       30.07F
GREAT BEND     CLEAR     45  39  81 CALM      30.08F
LIBERAL        CLEAR     57  52  82 E5        30.08F
PRATT          MOCLDY    55  46  71 SE3       30.08F
$$

KSZ066>073-081>083-090>101-211000-
SOUTHEAST KANSAS

CITY           SKY/WX    TMP DP  RH WIND       PRES   REMARKS
CHANUTE        CLEAR     47  46  97 N3        30.08F
COFFEYVILLE    CLEAR     49  49 100 CALM      30.07S FOG
HUTCHINSON     CLEAR     49  43  80 E3        30.08S
MEDICINE LODGE   N/A     53  49  86 CALM      30.06F
NEWTON         CLEAR     52  41  66 E6        30.10S
PARSONS        CLEAR     48  47  96 CALM      30.08F
WICHITA INTL   CLEAR     52  47  83 CALM      30.07S
WICHITA JABRA  CLEAR     50  46  86 NE3       30.07S
WICHITA MCCONL CLEAR     50  50 100 E5        30.07F
WINFIELD       CLEAR     53  52  96 E3        30.07F
$$

KSZ007>012-019>026-033>040-048>060-102>105-211000-
NORTHEAST KANSAS

CITY           SKY/WX    TMP DP  RH WIND       PRES   REMARKS
CONCORDIA      CLEAR     46  42  86 E3        30.08F
EMPORIA        CLEAR     47  46  97 NW3       30.09S
LAWRENCE       CLEAR     38  36  92 NW5       30.09S
MANHATTAN      CLEAR     40  39  97 CALM      30.09S
MARYSVILLE     CLEAR     41  37  87 CALM      30.09S
OLATHE IND     CLEAR     47  43  86 CALM      30.09S
OLATHE EXE     CLEAR     49  45  86 CALM      30.08S
SALINA         CLEAR     48  44  86 CALM      30.08F
TOPEKA BILLARD PTCLDY    43  42  97 CALM      30.09S
TOPEKA FORBES  CLEAR     41  39  93 CALM      30.08F
$$


USA.gov is the U.S. government's official web portal to all federal, state and local government web resources and services.